Temp
19 19 19 18 18 18 18 18 18 19 19 19 19 19 19 19 19 19 19 19 19 19 19 18 19 19 19 18 18 18 18 18 18 19 19 19 19 19 18 18 18 19 18 18 18 18 18 18 18 18 18 18 18 17 17 17 17 17 17 17 17 17
19 18 18 18 17 18 17 17 18 19 18 19 19 19 19 19 19 19 19 19 19 19 19 19 18 19 19 19 19 18 18 18 18 19 19 19 19 19 19 19 19 19 18 18 18 18 18 18 18 18 18 18 18 18 17 17 17 17 17 17 17 17
18 18 18 18 17 17 17 17 19 19 19 19 19 19 19 19 19 19 19 19 19 19 19 19 18 19 19 19 19 19 18 18 19 19 19 19 19 19 19 19 19 18 18 18 18 18 18 18 18 18 17 18 18 18 18 17 17 17 17 17 16 16
18 18 19 18 17 17 17 17 18 19 19 18 18 18 18 19 19 19 19 19 19 19 19 19 19 19 19 19 19 18 18 19 19 19 19 19 19 19 19 18 18 18 18 18 18 18 18 18 18 18 17 18 18 18 18 17 17 17 17 16 16 16
18 18 19 18 17 17 17 17 18 18 18 18 18 18 18 18 19 19 19 19 19 19 19 19 19 18 18 18 18 18 18 18 18 18 19 19 19 19 19 18 18 18 18 17 17 17 18 18 18 18 17 17 17 18 18 17 17 17 17 16 16 16
18 18 18 18 17 17 17 17 17 17 18 17 18 18 17 18 19 19 19 19 19 19 19 19 19 18 18 18 18 18 18 18 18 18 18 18 18 18 18 18 18 18 17 17 17 17 17 18 18 18 17 17 17 17 17 17 17 17 17 16 16 16
17 18 18 18 18 17 17 17 17 17 17 17 17 18 18 18 18 19 19 19 19 19 19 19 18 18 19 18 18 18 18 18 18 18 18 18 18 18 18 18 18 18 17 17 17 17 17 17 17 17 17 17 17 17 17 17 17 17 17 16 16 16
17 17 17 18 18 17 17 17 16 16 16 17 17 18 18 18 18 18 19 19 19 19 19 19 18 18 19 18 18 17 17 18 17 18 18 18 18 18 18 18 18 17 17 17 16 16 17 17 17 17 17 17 17 17 17 17 17 17 17 16 16 16
17 17 17 17 17 17 16 16 16 16 16 16 16 17 17 17 17 18 18 19 19 19 19 18 18 18 18 18 18 18 18 18 17 17 17 17 17 17 18 17 17 17 17 16 16 16 16 17 17 17 17 17 17 17 17 17 17 17 17 16 16 16
17 16 16 16 17 17 16 16 17 16 16 15 16 16 16 16 17 17 18 18 18 19 19 18 18 18 18 18 18 18 18 18 17 17 17 17 17 17 17 17 17 17 17 16 16 16 16 16 16 16 16 17 17 17 17 17 17 17 16 16 16 16
16 16 16 16 16 16 16 16 16 16 16 16 16 16 16 16 16 17 17 18 18 18 18 18 18 17 17 18 18 18 18 18 17 17 17 17 17 17 17 17 17 17 17 16 16 16 16 16 16 16 16 17 17 17 17 17 17 17 16 16 16 16
16 16 16 17 16 16 16 16 16 16 16 16 16 16 16 16 16 16 17 17 17 18 18 18 17 17 17 17 17 18 18 18 18 17 17 17 17 17 17 17 17 17 17 16 16 16 16 16 16 16 17 17 17 17 17 17 17 16 16 16 16 16
16 16 16 16 17 16 16 16 16 16 16 16 16 16 16 16 15 15 16 16 16 17 17 17 17 17 17 17 17 17 17 17 18 18 18 17 17 17 17 17 17 17 16 16 16 15 16 16 16 17 17 17 17 17 17 17 17 16 16 16 16 16
16 16 16 16 16 16 16 16 16 16 15 15 16 16 16 16 16 16 16 16 16 16 16 17 17 17 17 17 17 17 17 17 17 18 18 17 17 17 17 17 17 17 16 16 16 16 15 16 16 17 17 17 17 17 16 16 16 16 16 16 16 16
15 15 15 15 16 16 16 16 16 16 16 15 16 16 16 16 16 16 16 15 15 15 16 16 16 16 17 17 17 17 17 17 17 18 18 17 17 17 17 17 17 17 16 16 16 16 15 16 16 17 17 17 17 17 16 16 16 16 16 16 16 16
15 15 15 15 15 16 16 16 16 16 16 15 15 15 16 16 16 16 15 15 15 15 15 15 15 16 16 17 17 17 17 17 17 17 18 17 17 17 17 17 17 17 16 16 16 16 16 16 16 16 17 17 17 16 16 16 16 16 16 16 16 16
16 16 15 15 15 16 16 16 16 16 16 15 15 15 15 16 16 16 15 15 15 15 14 15 15 15 15 16 17 17 17 17 16 17 18 17 17 17 17 17 17 17 17 16 16 16 16 16 16 16 16 17 17 17 17 17 17 16 16 16 16 16
16 16 15 15 15 15 16 16 16 16 16 15 15 14 14 15 15 15 15 15 14 14 14 15 15 15 14 15 16 16 17 16 16 17 17 17 17 18 18 17 17 17 17 17 17 16 17 17 17 17 16 16 16 17 17 17 17 16 16 16 16 16
15 15 15 14 14 13 14 15 16 16 16 16 15 15 14 15 14 15 15 14 14 14 14 15 15 14 14 15 15 16 16 17 16 16 16 17 17 17 17 17 17 17 17 17 17 17 17 17 17 17 17 16 16 17 17 17 17 16 16 16 16 16
15 15 15 14 14 13 13 13 14 15 16 16 16 16 15 15 15 14 14 14 14 14 14 14 14 14 14 15 15 15 16 16 16 16 16 16 17 17 18 17 17 17 17 17 17 17 17 17 17 17 16 16 16 16 16 16 16 16 16 16 17 16
15 14 14 14 13 13 12 11 11 12 13 15 16 16 16 15 15 14 14 14 14 14 13 14 14 14 14 14 14 14 15 16 16 16 16 16 17 18 18 18 17 17 17 17 17 17 17 17 16 16 16 16 15 15 15 16 16 16 16 16 17 16
15 15 14 13 12 12 11 10 10 10 10 12 14 15 16 16 15 15 14 14 14 14 14 13 14 14 14 14 14 14 15 15 16 16 16 16 17 18 18 18 17 17 17 17 17 17 16 16 15 16 16 15 15 15 15 15 16 16 16 16 17 16
15 15 14 13 12 11 11 10 10 9 9 10 12 13 14 15 15 14 14 13 14 14 13 13 13 14 14 14 14 14 14 15 15 15 16 16 16 17 18 18 18 17 17 17 17 17 17 16 15 15 16 15 15 15 15 15 15 16 16 16 16 16
15 14 13 12 12 11 11 10 10 9 8 8 10 12 14 15 14 14 13 13 13 13 13 13 13 13 14 14 15 14 15 15 15 15 15 15 16 16 17 17 17 17 16 16 16 17 17 17 16 16 15 15 15 15 15 15 14 15 16 15 16 16
14 13 12 11 12 12 11 10 10 10 10 9 9 10 12 14 14 13 13 13 12 12 12 13 13 13 13 14 14 15 15 15 15 15 15 15 16 16 17 17 17 17 16 16 16 16 17 17 17 16 16 16 15 15 15 15 15 15 16 16 16 16
14 12 11 11 11 11 11 10 9 8 9 8 8 8 9 11 12 13 13 13 12 12 12 12 13 13 13 13 13 14 15 15 16 16 15 15 16 16 16 16 17 17 17 17 17 16 16 16 16 16 17 17 17 17 16 15 15 16 15 16 16 16
13 12 11 11 11 10 10 9 8 8 7 7 7 8 8 8 9 11 12 12 12 12 11 11 12 12 13 13 13 14 14 14 15 16 16 16 16 16 16 16 17 17 17 17 17 16 16 16 15 16 17 17 17 18 17 16 16 16 15 15 16 16
13 12 11 11 11 10 9 8 8 8 7 7 7 8 8 8 8 9 10 11 12 12 12 11 11 12 12 13 13 13 13 14 15 15 16 16 16 16 16 16 16 16 17 17 17 17 16 16 16 16 16 17 17 18 18 18 17 17 16 16 15 15
13 12 11 11 11 10 8 7 7 7 7 8 8 8 8 8 8 8 8 9 11 12 12 12 11 11 12 12 13 13 13 14 14 15 16 16 16 17 16 16 16 16 16 16 17 17 17 17 16 16 16 16 17 17 17 17 18 17 16 16 16 15
13 12 12 12 11 9 8 7 6 7 7 8 8 8 8 8 7 8 8 8 8 10 11 12 11 11 11 12 12 13 13 14 14 14 15 16 16 16 16 16 16 16 16 16 17 17 17 17 17 17 17 16 16 16 16 16 16 17 16 16 16 15
13 12 12 11 10 9 8 7 6 6 7 7 7 7 7 7 7 7 8 8 8 8 9 10 12 11 10 11 11 12 13 13 14 14 14 15 15 16 16 16 16 16 16 16 17 17 17 17 17 17 17 17 17 17 17 17 16 16 16 16 16 16
13 12 12 10 9 9 8 7 6 6 6 6 7 6 6 6 7 7 7 7 8 8 8 8 10 11 10 10 10 11 12 12 13 14 14 14 14 15 15 16 15 16 16 16 16 17 17 17 17 17 17 17 17 17 17 18 17 17 17 17 16 16
13 13 11 10 9 9 8 7 7 6 6 6 6 6 6 6 6 7 7 7 7 7 7 8 8 9 9 9 9 10 11 11 12 13 13 13 14 14 15 15 15 16 16 16 16 16 17 17 17 17 17 17 17 17 18 18 18 18 18 18 17 16
12 12 11 10 9 8 8 7 7 6 6 5 5 5 5 6 6 6 6 7 7 7 7 8 8 8 8 8 9 9 10 10 11 12 13 13 14 14 15 15 15 15 16 16 16 16 16 17 17 17 18 17 17 18 18 18 18 18 18 18 17 16
12 11 10 9 9 8 7 7 6 6 6 5 5 5 5 5 6 6 6 6 7 7 7 7 7 7 7 8 8 9 9 10 10 11 12 13 13 14 14 15 15 15 15 16 15 15 16 17 17 17 18 18 18 18 18 18 18 18 18 18 18 17
11 10 9 9 8 7 7 6 6 6 5 5 5 5 5 5 5 5 5 6 6 6 6 7 7 7 7 8 8 8 9 9 10 11 11 12 13 13 14 14 15 15 15 15 15 15 16 17 16 17 17 18 18 18 18 18 18 18 19 19 18 18
11 10 9 9 8 7 7 6 6 5 5 5 5 5 5 5 5 5 5 5 5 5 6 6 7 7 8 8 8 9 9 9 9 10 11 11 12 13 14 14 14 15 15 15 15 16 16 16 16 17 17 18 18 18 18 18 18 18 18 19 19 18
Height
810 809 808 808 809 809 811 814 817 820 822 822 821 821 822 822 824 826 829 831 832 833 833 833 834 835 835 836 838 840 841 843 844 844 845 847 848 849 849 850 851 852 852 853 853 854 855 856 857 858 859 860 861 863 863 864 865 865 865 865 865 865
809 809 809 809 811 811 812 814 817 820 823 823 822 821 821 822 824 825 827 830 832 833 833 834 835 836 836 836 838 841 842 843 844 845 846 847 849 849 850 851 851 852 853 853 853 854 855 856 857 858 859 860 861 863 864 865 866 866 866 866 866 866
809 809 810 811 812 813 814 815 815 817 819 820 819 819 819 821 823 825 826 828 831 833 834 835 836 837 837 837 838 841 842 843 844 845 847 848 849 850 850 851 852 852 853 854 854 854 855 856 857 857 858 860 861 862 864 865 866 866 867 867 867 867
809 809 810 811 812 814 815 816 815 815 817 819 819 819 820 820 822 824 826 828 830 832 833 835 837 838 838 838 838 840 842 844 844 845 847 848 849 850 850 851 852 852 853 853 854 854 855 855 856 857 858 859 861 862 864 865 866 867 867 868 868 869
809 809 809 810 813 815 815 815 816 815 817 819 820 820 820 821 822 823 825 827 829 831 833 834 836 837 838 838 839 840 842 844 844 845 846 847 848 849 850 851 851 852 853 853 853 854 854 855 856 856 857 859 860 862 863 865 866 867 867 868 869 870
811 810 810 810 812 814 814 815 816 816 817 818 818 818 818 819 820 821 823 825 827 829 832 834 835 836 837 839 839 840 841 843 844 844 845 846 847 848 849 850 851 851 852 853 853 854 854 855 855 856 857 858 860 861 863 865 866 866 867 868 869 870
812 811 811 811 812 813 813 814 815 816 816 816 816 815 815 815 817 819 820 822 825 827 830 833 834 835 837 838 839 839 841 842 843 844 844 846 847 848 849 850 850 851 851 852 853 854 854 855 855 855 856 858 859 861 863 864 865 866 867 868 869 870
812 812 812 812 812 813 813 814 814 815 814 814 814 815 815 816 817 819 820 822 824 827 829 832 833 834 836 837 839 839 839 841 842 842 844 845 846 848 848 849 850 850 851 852 853 853 854 854 855 855 856 857 859 861 862 863 865 866 867 868 869 870
812 812 813 813 813 813 814 814 815 814 814 814 814 815 817 818 818 818 820 822 824 827 829 831 832 834 835 836 838 838 839 840 841 841 843 844 845 847 847 848 849 850 850 851 852 853 854 854 854 855 856 857 859 860 862 863 864 865 867 868 869 870
811 812 812 813 814 814 815 815 815 814 814 814 813 814 815 816 816 816 818 820 823 826 829 831 832 833 834 835 836 837 838 839 840 841 842 843 844 845 846 847 848 849 850 850 851 852 853 854 854 855 856 857 859 860 861 863 864 865 866 867 869 870
810 810 811 813 813 814 815 816 816 815 814 814 814 813 813 813 814 815 816 819 822 825 827 829 831 832 833 834 835 836 837 838 839 840 840 842 843 844 845 845 846 847 849 849 851 851 853 854 854 855 856 857 859 860 861 862 863 865 866 867 868 869
809 809 810 811 812 813 814 816 816 815 815 814 814 814 813 812 813 814 816 818 820 823 825 826 828 830 831 832 833 834 836 837 838 838 840 841 842 843 844 845 845 846 847 848 849 851 852 853 854 855 856 857 858 860 861 862 863 864 865 866 868 869
809 809 809 810 811 812 813 814 815 815 814 814 813 813 813 813 813 813 815 818 820 821 823 825 826 828 829 831 832 833 834 835 836 837 839 840 842 842 843 844 844 845 846 847 848 850 851 853 854 855 856 857 858 859 860 862 863 864 865 866 867 868
810 809 809 809 809 810 811 811 812 813 813 812 812 812 812 812 813 813 814 816 819 820 820 822 825 826 827 829 831 832 832 833 834 836 837 839 840 841 842 842 843 843 844 845 847 849 850 852 854 854 855 856 857 859 860 861 862 863 864 865 866 867
810 810 809 809 808 809 809 809 810 811 811 811 811 811 811 811 813 814 815 815 817 818 819 820 822 824 825 826 828 830 830 830 831 833 835 836 838 840 841 841 842 842 843 844 845 848 850 852 853 854 855 856 857 858 860 861 862 863 864 864 865 866
810 809 809 808 808 808 808 808 808 809 809 809 810 810 811 811 812 814 814 815 815 816 817 818 820 821 822 823 825 826 827 828 829 830 832 834 836 837 839 840 841 841 842 843 844 846 849 851 852 853 854 856 857 858 859 860 861 862 863 864 865 865
809 809 808 808 807 807 807 807 807 807 807 808 808 809 810 810 811 812 813 814 814 814 814 816 817 819 819 821 822 823 824 825 826 827 829 831 833 834 837 838 840 840 841 842 843 845 847 849 851 852 853 855 856 857 858 860 861 862 862 863 864 865
809 809 808 808 807 807 806 806 806 806 806 806 807 808 809 810 810 811 812 812 812 812 813 813 814 816 816 817 819 819 820 822 823 824 825 827 830 832 834 836 838 839 840 842 843 844 845 847 849 850 852 853 855 856 857 859 859 860 861 862 863 864
809 809 808 808 807 807 806 806 805 805 805 805 806 806 807 808 809 810 811 811 811 811 811 811 811 813 814 814 815 815 816 819 821 821 823 825 827 829 831 834 836 838 839 841 842 844 845 847 848 849 851 852 854 855 856 857 858 859 860 861 862 863
809 809 808 807 807 806 806 806 805 804 803 804 804 805 805 806 807 808 809 809 810 810 810 810 810 811 812 812 813 813 813 815 817 819 820 822 824 826 828 830 833 835 837 839 841 843 845 846 848 849 850 852 853 854 855 856 857 858 859 860 861 861
809 809 808 807 807 805 805 805 804 803 802 801 802 802 803 804 805 806 807 808 808 808 809 809 809 810 810 811 812 812 812 813 814 815 816 818 821 824 826 828 830 833 835 837 839 841 843 846 847 848 849 850 851 852 853 855 856 857 858 859 859 860
808 808 808 807 807 806 805 805 804 804 802 800 800 799 800 801 802 802 804 805 806 806 807 807 808 808 808 808 809 811 811 811 811 812 813 815 819 821 824 826 828 830 833 835 836 839 841 844 846 846 848 850 851 852 853 853 854 855 856 857 858 858
807 807 807 807 807 806 805 804 803 803 803 801 799 798 798 798 798 799 800 802 804 804 804 805 806 806 806 805 807 808 809 809 809 809 811 813 815 818 821 823 825 827 830 832 834 836 838 840 843 845 848 849 850 851 852 852 852 853 854 855 856 857
806 807 807 807 806 806 805 804 803 802 801 801 799 798 796 795 796 797 798 799 801 802 803 803 804 804 804 804 804 805 806 806 806 807 809 810 812 814 817 820 822 825 827 828 830 832 835 837 839 842 845 848 849 851 851 849 849 851 852 853 854 855
804 805 806 806 805 805 804 803 802 800 799 799 798 798 796 795 794 795 795 796 798 800 801 801 802 802 802 802 802 802 803 803 804 805 807 809 810 811 814 817 819 822 823 824 825 827 830 833 835 837 840 842 846 848 847 846 848 849 850 851 852 853
803 804 804 804 804 804 803 802 801 799 798 797 796 797 797 795 794 793 793 793 794 796 798 799 800 801 800 800 800 800 800 801 801 802 804 806 808 809 811 813 815 817 820 822 823 824 826 829 832 834 835 837 838 840 841 844 847 848 848 849 850 852
802 802 803 803 803 803 802 802 801 800 799 798 796 795 796 796 795 793 792 791 792 793 795 797 797 798 799 798 798 798 798 799 799 800 802 803 805 807 808 809 811 813 816 819 822 822 822 825 829 831 832 834 836 836 837 840 843 845 847 848 848 849
800 801 801 801 801 801 801 801 800 799 798 797 796 794 794 795 794 793 792 790 790 790 791 793 794 796 796 797 797 796 797 797 797 798 799 800 801 802 805 807 809 810 812 815 817 818 820 822 823 826 829 832 834 835 835 836 838 840 843 845 846 847
799 800 800 800 800 800 800 800 799 798 797 795 794 794 793 793 792 792 791 790 789 788 788 789 791 792 793 794 794 795 795 795 795 795 796 797 797 799 801 804 806 807 809 812 813 814 817 818 819 821 825 828 831 833 834 835 836 837 839 842 844 845
798 799 799 799 799 798 798 798 798 797 796 794 793 792 792 791 790 790 790 789 788 787 786 786 787 788 790 791 791 792 792 792 792 793 793 793 794 796 797 799 802 804 806 808 810 812 813 814 815 818 821 823 826 829 831 833 834 835 837 839 841 842
797 797 797 798 798 797 796 796 796 795 794 793 792 792 791 789 788 788 788 787 787 786 785 784 784 784 786 787 788 789 789 789 789 789 790 790 791 793 794 795 797 800 802 804 807 809 810 811 813 815 818 820 821 823 825 828 829 832 834 836 838 840
795 796 797 797 796 795 795 794 794 794 793 792 791 791 790 788 787 787 786 785 785 785 784 783 782 781 782 783 785 786 786 786 786 786 787 787 788 790 791 792 793 795 798 800 802 805 806 809 810 812 814 816 818 820 822 824 826 829 831 833 836 838
794 795 796 795 794 793 793 792 792 792 791 791 790 789 789 787 786 786 785 783 783 782 782 781 781 780 779 780 781 783 783 783 783 783 784 784 785 786 787 788 789 790 792 795 798 801 803 804 806 807 809 813 815 817 819 821 824 826 828 831 833 836
792 794 794 793 793 792 791 791 790 790 790 790 789 788 787 786 785 784 783 782 781 780 779 779 779 778 777 778 778 779 780 780 780 780 781 781 782 783 784 784 785 786 788 790 793 797 799 800 802 803 806 809 812 813 815 818 821 823 825 828 830 833
791 792 792 791 791 790 790 790 789 789 789 788 788 787 786 785 784 783 782 780 779 778 777 776 776 776 775 775 775 776 777 777 777 778 778 778 779 780 781 781 782 782 784 786 788 791 794 796 798 800 802 805 807 809 812 814 817 819 822 824 827 829
790 791 791 790 790 789 789 788 788 788 788 787 786 786 784 783 782 781 780 778 776 775 774 773 773 773 773 773 773 773 773 773 774 774 775 775 776 777 777 778 778 779 779 781 784 787 789 791 793 796 798 801 803 806 808 810 813 816 818 821 823 826
788 789 789 789 789 788 788 787 787 786 786 786 785 784 783 782 781 779 778 776 774 772 771 771 770 770 770 770 770 770 770 770 771 771 771 772 773 773 774 774 774 775 776 777 779 781 784 787 789 792 795 797 800 802 804 807 810 812 815 818 820 822
Wind_Speed
12 12 7 2 4 2 11 16 15 16 15 15 15 17 19 19 19 18 15 15 15 16 15 13 13 10 11 13 15 20 24 23 23 24 23 22 23 23 23 21 18 17 17 16 14 13 11 9 8 10 14 16 16 15 13 13 11 11 11 10 10 9
14 12 11 8 7 4 8 16 17 16 14 13 12 15 17 18 18 18 16 16 16 15 14 14 14 13 13 12 14 20 21 20 22 23 22 22 22 21 20 19 18 16 15 14 13 12 10 10 9 12 17 18 17 16 14 12 10 10 11 11 10 9
16 13 12 11 10 6 5 13 17 16 16 16 13 14 17 18 18 18 18 17 17 15 14 14 13 13 14 14 17 21 22 22 22 20 20 21 20 19 18 17 16 16 14 13 12 11 10 11 10 15 21 20 18 16 15 13 11 11 11 11 12 11
15 14 12 11 12 11 4 8 15 16 17 17 14 13 15 17 18 18 18 18 17 15 15 14 12 13 16 16 18 21 23 22 21 20 18 18 18 18 17 16 15 15 15 13 12 10 11 12 12 16 23 22 20 18 15 14 12 11 12 13 13 12
12 13 13 12 11 11 9 3 8 12 14 14 13 12 12 14 17 18 19 19 18 16 16 15 14 15 17 18 20 21 21 20 19 19 18 17 17 17 17 16 15 15 14 13 12 11 11 13 14 17 22 24 22 19 16 15 13 12 13 13 13 13
9 11 12 12 10 9 9 9 3 4 9 10 12 14 13 14 17 19 21 21 20 19 17 17 17 17 17 19 20 21 20 19 18 19 19 17 16 16 16 16 15 15 14 14 12 12 12 13 16 19 22 24 23 21 18 16 14 13 13 12 12 13
7 8 9 10 10 9 10 10 8 3 4 7 11 16 18 19 20 21 22 23 23 22 20 20 20 19 18 19 20 21 21 19 19 19 18 17 16 16 16 15 16 15 14 13 13 13 13 14 16 19 22 24 24 22 19 17 15 13 12 11 12 14
5 6 7 7 8 10 11 10 9 7 3 2 10 17 19 19 18 19 21 22 23 23 23 22 22 21 20 20 21 22 21 20 20 20 19 17 16 15 16 15 15 15 14 13 13 13 14 15 17 19 22 23 23 22 20 18 16 13 11 11 12 14
6 6 6 6 5 8 10 10 9 8 8 6 2 8 11 14 15 17 19 22 23 23 25 24 23 23 23 23 22 22 22 22 22 21 20 18 17 16 16 15 14 14 14 13 13 14 15 15 16 19 21 23 23 22 21 18 15 13 11 11 12 13
8 7 6 5 5 5 6 7 7 7 7 7 4 2 4 8 14 17 18 21 23 25 26 27 26 26 26 25 23 22 22 23 23 23 21 20 18 17 16 15 14 13 13 13 13 14 16 16 16 18 20 22 23 22 20 17 15 13 11 11 11 12
9 8 7 6 5 4 4 4 4 4 4 4 3 1 1 4 10 16 18 20 23 26 29 28 27 28 28 27 25 24 23 24 25 25 23 22 20 17 16 15 14 13 12 12 14 14 16 17 17 18 19 21 22 21 19 17 15 13 12 11 11 12
10 10 9 7 7 6 5 3 3 3 4 4 3 2 3 3 5 11 17 20 22 24 29 30 28 29 30 30 29 28 26 25 26 26 24 22 21 19 17 16 14 13 12 11 13 15 16 17 17 18 19 21 22 20 18 17 15 14 12 11 11 12
10 10 11 10 9 8 8 6 5 5 6 6 6 6 5 5 3 5 12 19 21 21 25 29 31 30 31 30 30 30 29 28 28 27 25 23 22 21 19 17 15 14 13 12 14 15 16 17 17 17 18 20 22 20 19 17 15 14 12 11 12 13
9 10 12 12 11 9 10 10 9 8 8 8 8 9 9 9 6 4 8 12 16 20 21 23 27 31 31 30 30 31 31 31 31 28 25 25 24 23 22 19 16 16 14 13 15 15 16 17 17 17 17 19 20 19 18 17 15 13 12 11 12 14
8 10 12 12 12 11 11 12 12 11 11 10 9 10 11 11 10 8 9 8 10 16 19 19 21 26 31 32 30 31 32 32 33 30 27 27 26 24 23 20 18 18 15 14 16 16 16 17 17 17 17 18 18 17 17 16 15 14 12 12 12 14
9 10 11 12 14 14 13 13 13 13 13 12 10 9 10 12 13 12 13 12 10 11 14 17 19 21 25 32 34 32 31 32 33 32 30 28 27 25 23 21 19 19 17 16 17 18 17 17 16 16 16 16 17 16 16 16 15 14 13 12 12 13
9 10 11 12 14 15 16 15 15 15 15 14 12 10 10 10 13 14 14 14 13 12 12 13 16 19 20 24 33 36 33 31 35 35 31 31 29 27 24 22 21 21 19 17 18 19 19 18 16 15 14 15 16 15 15 16 16 15 14 13 12 13
9 11 12 13 14 15 16 17 17 17 17 16 14 12 10 10 10 12 13 13 14 15 15 14 15 18 18 18 23 35 38 33 35 36 33 33 31 28 25 23 23 23 20 19 19 19 20 20 18 16 14 14 16 15 15 17 18 17 15 13 12 12
9 11 13 15 15 15 16 17 17 17 17 17 17 15 13 12 11 10 12 13 13 14 16 18 18 18 19 19 19 24 37 37 34 36 34 33 33 30 27 25 25 25 23 21 20 19 19 19 18 17 16 14 15 17 17 19 19 19 16 13 12 13
8 11 14 16 17 18 18 19 19 18 17 17 17 17 16 15 13 11 10 11 12 12 12 15 18 19 20 20 19 18 28 37 35 35 34 33 35 33 29 28 28 29 27 24 21 20 19 18 19 18 16 15 15 17 19 20 20 19 16 14 14 15
7 11 13 15 17 19 21 21 21 21 20 19 19 19 18 16 16 13 11 10 11 12 11 11 13 14 15 16 16 16 18 30 34 35 35 34 35 33 30 29 30 30 29 27 24 22 22 20 18 17 15 14 14 15 16 19 21 20 17 16 17 17
8 11 13 14 16 18 20 20 20 20 21 21 20 20 19 18 17 17 14 11 9 10 10 11 11 11 10 10 13 15 16 23 31 34 35 34 34 34 33 31 30 31 30 30 28 26 25 20 16 17 14 9 8 11 14 18 21 21 19 19 18 17
9 12 13 14 16 18 19 19 20 20 20 21 20 19 19 19 18 18 17 13 10 8 8 9 10 10 9 9 12 16 17 20 25 32 33 33 34 35 35 34 33 32 31 30 28 27 28 24 19 17 12 6 4 5 8 13 19 22 23 22 20 18
8 11 12 14 17 18 19 19 19 20 19 19 19 18 19 20 19 18 17 14 11 9 9 9 9 8 9 9 11 14 18 19 22 29 33 33 34 34 35 36 36 34 32 29 27 28 30 30 26 20 10 3 2 3 3 7 13 18 21 22 21 20
9 11 12 14 16 18 19 20 20 20 20 19 17 16 18 20 19 17 17 15 14 12 11 10 9 8 9 9 11 13 16 19 21 26 31 32 33 35 35 36 37 36 35 32 30 28 29 31 33 29 19 9 5 3 3 4 7 11 18 20 21 22
10 12 13 15 16 17 17 18 19 20 20 20 19 17 15 16 18 18 18 18 17 16 14 12 10 9 9 10 11 13 15 18 21 24 28 30 31 34 36 38 39 38 38 36 32 27 27 30 32 33 31 23 15 8 5 7 5 3 11 17 20 22
11 12 14 16 16 16 15 15 17 18 19 19 20 22 18 15 17 19 19 19 19 19 18 16 13 11 10 11 11 13 15 18 21 24 26 28 29 31 34 37 39 40 39 37 34 29 28 29 29 30 33 31 24 14 9 12 7 2 3 10 17 21
11 13 14 15 16 16 14 13 15 16 18 18 20 24 24 20 18 18 18 20 20 21 20 19 16 13 11 13 13 14 15 17 21 24 26 29 30 30 31 34 35 38 38 36 36 34 30 30 29 28 31 31 27 18 13 15 17 12 4 2 9 15
12 13 14 15 16 15 13 12 13 15 18 20 22 24 25 24 20 18 19 20 20 21 21 20 18 16 13 13 15 16 16 17 20 23 27 29 31 32 33 34 34 36 36 35 38 37 32 33 33 30 30 31 28 22 16 15 19 19 9 4 4 5
11 12 13 14 15 15 13 12 14 16 19 22 24 25 25 25 23 19 18 18 19 21 22 21 20 18 16 14 14 16 18 19 19 21 25 28 30 32 34 36 36 37 37 36 37 36 34 35 36 33 33 33 29 24 18 12 15 19 12 7 5 4
12 11 12 14 15 16 15 15 16 17 19 22 23 24 24 24 24 22 20 18 18 19 20 21 21 21 19 16 16 16 18 20 20 20 23 26 28 30 32 35 37 38 40 39 38 36 35 35 34 34 35 35 33 30 25 17 17 21 14 8 6 4
12 11 13 14 15 16 16 16 17 18 19 20 21 22 23 23 23 22 21 19 17 17 17 18 20 21 21 18 18 18 19 20 22 22 22 25 27 29 30 33 36 38 40 42 41 37 33 32 32 34 35 37 36 33 32 27 23 24 21 16 12 6
13 12 13 15 15 16 17 17 17 17 18 18 18 19 21 22 22 21 20 20 19 17 16 17 18 20 21 20 19 20 21 22 23 23 22 23 25 27 29 32 35 38 40 42 43 41 36 35 35 36 36 36 35 34 34 32 27 25 24 23 18 10
14 13 14 14 15 16 17 17 17 17 18 18 18 18 18 19 21 21 21 22 22 20 19 19 19 20 22 21 20 20 22 24 24 24 24 24 24 24 27 31 34 38 41 42 43 43 42 39 36 36 36 35 35 36 36 34 31 29 26 25 22 15
15 15 14 14 15 16 17 17 17 18 18 18 19 19 18 18 19 21 22 23 24 24 23 23 22 22 23 22 21 21 22 24 25 26 27 26 25 24 26 29 33 37 40 41 42 42 43 41 37 36 36 36 37 36 35 34 34 32 29 27 26 24
15 15 13 14 14 15 16 17 17 17 18 18 19 19 19 19 20 21 23 25 28 28 27 27 25 24 23 21 21 21 22 24 25 27 28 28 28 26 25 27 31 34 37 39 41 42 42 42 41 39 39 38 37 35 35 35 35 33 31 29 28 28
17 15 13 13 13 14 15 16 16 16 17 18 19 20 21 22 22 22 23 24 27 28 27 27 25 24 23 22 21 20 21 23 25 26 28 30 29 28 27 27 29 32 34 37 40 42 43 42 41 40 40 40 38 36 35 35 35 35 32 31 29 29
Wind_Direction
37 35 35 327 312 293 204 201 197 193 193 191 191 188 183 184 185 190 193 190 187 185 190 180 173 160 153 179 174 167 168 168 172 166 164 171 174 173 169 170 173 175 174 175 177 171 161 153 156 165 173 181 185 186 184 176 166 167 169 167 167 164
38 29 31 31 5 359 204 196 183 180 188 192 198 193 186 187 188 192 196 197 194 194 198 193 186 169 156 161 159 168 170 166 170 168 171 175 177 178 177 178 180 184 182 182 182 173 161 155 163 173 178 184 187 189 188 183 176 176 177 178 178 173
39 27 24 37 34 37 178 186 177 178 189 191 192 192 189 190 191 193 199 204 200 199 204 202 195 172 158 154 151 161 165 164 165 167 178 182 183 183 182 184 185 191 193 195 194 183 167 160 167 176 181 187 189 188 189 188 185 184 185 186 185 181
38 33 21 30 42 51 84 181 181 182 190 188 182 188 193 194 195 196 201 207 203 200 200 200 200 181 169 166 159 161 166 167 163 166 181 185 187 188 188 191 193 197 200 203 205 196 177 167 171 178 183 189 190 187 187 190 189 190 193 192 188 184
32 37 33 36 48 55 56 106 184 195 196 185 177 185 197 201 200 200 202 206 207 203 199 198 202 191 182 181 175 173 172 170 169 171 180 184 189 192 192 197 202 208 208 210 210 200 185 173 175 181 185 189 190 188 187 189 190 194 199 197 192 189
21 37 45 48 56 64 64 68 67 233 212 196 188 187 194 206 205 205 203 204 208 208 205 204 204 199 194 190 183 183 180 176 178 181 183 187 194 197 198 201 206 214 215 216 214 200 187 179 179 182 186 189 190 189 188 189 191 198 201 197 195 192
11 26 43 51 57 64 69 70 59 43 232 228 217 199 194 200 204 209 207 203 207 210 210 209 207 206 205 198 188 186 187 186 186 187 189 192 199 203 205 207 209 215 218 218 217 203 188 183 182 183 187 189 191 190 189 191 194 199 199 194 195 194
10 17 30 43 54 63 67 69 66 69 66 275 231 214 206 205 205 211 214 209 209 212 215 214 210 209 207 201 197 194 192 194 194 194 195 197 203 209 212 214 214 218 222 223 220 207 192 186 183 186 190 191 192 191 190 193 196 198 196 191 191 194
16 22 28 33 50 64 65 69 69 68 70 68 246 235 235 233 215 208 216 217 215 216 219 218 214 211 206 201 200 200 199 200 200 199 199 201 205 212 216 218 218 222 228 228 225 210 196 189 185 186 191 193 193 192 192 195 197 196 195 191 189 191
23 25 27 27 39 54 54 60 60 54 61 70 61 348 294 259 228 214 212 216 219 221 221 221 218 213 208 205 203 203 203 203 205 204 202 204 207 211 216 219 219 225 230 231 228 213 196 190 187 186 190 193 193 193 194 196 196 196 195 194 193 193
21 20 18 12 15 24 35 42 35 24 20 31 47 49 291 262 238 228 219 211 214 220 222 221 218 216 214 211 207 205 205 206 208 209 205 206 210 212 216 219 221 224 229 230 225 213 197 190 187 186 188 190 192 195 198 197 196 196 196 198 200 202
14 12 8 2 356 353 356 2 345 321 322 325 323 299 256 248 234 231 230 220 214 215 220 223 220 217 216 212 208 205 205 208 212 212 208 207 211 215 218 220 222 221 223 225 219 209 196 189 187 185 187 190 193 197 200 200 198 198 200 202 207 210
8 3 1 359 351 342 339 340 329 307 306 303 293 288 270 265 253 215 227 230 227 220 217 222 223 220 218 213 209 206 204 207 212 214 209 206 211 216 219 221 220 216 216 213 204 200 194 189 187 185 187 190 193 197 200 201 201 200 202 207 215 217
0 357 356 355 351 342 331 328 328 318 309 304 294 286 274 266 269 236 224 233 237 231 224 225 226 223 220 216 212 208 206 207 210 213 209 206 210 216 219 220 216 212 210 202 191 193 195 190 185 183 185 187 188 193 199 202 202 202 205 209 220 223
348 350 349 348 348 345 335 326 323 321 315 311 301 289 278 266 264 256 246 246 239 237 239 244 238 226 220 218 216 211 209 209 210 210 207 206 209 213 218 218 212 209 206 195 186 190 196 193 187 181 181 184 183 188 196 201 202 203 208 211 221 227
338 342 344 342 342 340 337 330 321 319 316 315 310 297 283 266 259 258 259 259 250 244 247 250 248 241 229 220 217 215 212 209 210 210 205 204 207 209 214 215 209 207 205 195 188 189 194 197 193 185 182 183 185 190 196 200 204 207 211 214 220 228
332 333 337 338 336 334 334 332 325 319 312 311 311 306 295 274 257 254 259 263 259 258 257 252 250 255 253 234 221 217 214 210 209 211 206 202 205 207 209 210 206 206 205 199 194 192 194 198 200 196 190 189 191 195 200 205 210 214 215 218 223 227
326 328 331 330 329 329 330 331 328 320 312 308 306 304 300 287 269 255 253 259 262 262 259 255 252 257 264 264 243 222 213 211 208 209 207 202 202 205 206 206 204 204 205 204 201 198 195 198 204 208 206 201 200 202 210 217 217 217 218 222 230 232
323 327 330 328 327 325 325 327 326 320 310 304 300 298 294 290 287 273 261 258 262 265 263 258 258 263 262 268 274 237 212 209 208 206 206 202 200 203 205 205 202 202 205 206 206 205 201 198 202 211 217 215 213 215 220 221 219 219 220 227 239 241
323 328 331 329 327 325 326 328 327 323 314 305 300 296 293 291 295 295 282 270 265 266 270 267 262 269 269 261 275 264 216 206 207 206 204 202 200 201 202 203 201 201 202 207 211 210 208 206 208 214 222 226 226 226 226 223 219 221 223 232 244 244
326 331 334 331 327 326 328 329 328 325 319 311 304 300 298 296 299 303 302 291 277 270 271 277 271 269 277 266 264 273 231 207 206 207 206 205 202 201 201 203 202 201 202 206 210 212 213 213 214 218 225 232 233 232 230 224 220 220 225 235 243 242
326 330 335 332 327 325 324 324 321 318 316 311 306 303 302 301 302 302 306 310 300 288 278 278 282 275 278 271 254 256 243 219 210 206 205 206 204 202 203 204 205 203 203 206 209 211 214 213 210 213 217 227 236 236 233 224 220 222 226 232 239 240
325 325 331 331 328 326 322 319 314 311 310 307 304 302 300 299 300 301 304 313 316 316 307 291 289 284 276 272 255 243 236 230 220 209 204 203 203 204 204 206 207 204 202 205 210 213 216 216 208 205 205 209 213 219 232 227 223 227 230 232 236 237
328 324 326 330 329 326 321 316 311 307 303 300 299 298 296 294 298 304 307 312 317 321 322 311 300 289 276 269 260 246 235 233 225 213 208 206 204 204 205 206 207 206 201 199 205 211 216 218 212 202 186 174 170 166 225 223 217 227 234 236 236 234
329 324 325 327 328 326 321 316 313 311 307 305 304 297 294 296 301 310 313 313 317 319 320 314 302 291 284 274 263 253 242 237 230 218 212 211 209 208 208 208 207 207 204 200 199 202 210 215 214 209 198 178 156 178 230 190 189 221 232 236 237 234
323 323 324 325 328 326 321 316 312 310 310 310 308 301 298 304 308 312 314 313 313 316 317 315 304 285 278 278 268 258 249 241 237 228 219 219 220 215 211 209 208 207 207 205 200 196 201 208 211 211 208 202 195 196 183 158 148 217 224 231 237 236
317 321 322 325 327 323 317 311 305 299 299 299 297 297 300 305 308 309 308 308 310 312 313 312 309 293 270 265 264 261 255 246 242 238 230 228 229 225 217 211 208 208 207 206 202 198 197 198 202 208 210 209 207 206 188 177 179 162 191 223 230 233
314 317 319 324 323 318 311 305 302 296 292 290 288 291 297 302 303 302 299 300 304 306 308 309 308 304 283 262 255 255 255 250 244 242 238 234 233 230 223 215 210 208 208 205 203 203 200 194 195 201 205 207 208 208 198 194 199 192 164 188 216 226
310 314 318 322 317 313 307 298 295 294 291 291 290 291 296 300 300 299 298 299 299 298 300 302 303 305 298 278 260 251 250 250 245 241 240 238 234 229 223 218 213 209 206 205 205 206 202 199 199 199 199 203 207 206 200 199 202 197 185 173 187 209
304 309 314 314 310 308 303 293 288 287 288 290 292 294 297 298 298 299 299 299 300 298 296 295 296 300 299 291 276 260 253 251 247 242 239 238 235 230 223 219 218 213 208 207 208 207 205 204 203 201 200 200 202 203 198 193 196 195 190 186 190 196
297 304 308 304 303 305 301 293 287 285 285 286 290 293 295 295 296 297 298 297 298 298 298 294 292 294 296 295 289 275 261 253 250 247 241 239 238 235 226 220 218 215 212 210 208 207 207 206 203 202 203 203 203 203 202 199 196 192 188 181 177 188
292 301 302 296 298 302 301 295 290 286 284 284 286 288 289 289 291 293 295 296 296 296 298 297 293 292 292 294 294 287 275 260 251 248 244 241 240 239 233 224 218 214 212 212 209 207 208 207 203 201 204 207 207 207 207 209 206 198 197 195 185 178
287 296 296 294 297 299 298 297 294 288 285 283 283 283 284 285 285 288 290 291 293 292 292 293 293 292 289 290 292 290 285 273 259 251 248 245 242 242 239 230 221 215 212 212 210 210 211 209 207 205 205 207 208 210 211 212 211 208 207 201 191 181
280 289 291 293 296 296 297 299 297 291 288 285 283 282 280 281 282 283 285 286 288 288 287 288 288 288 287 287 287 285 284 280 271 260 255 253 248 244 242 235 225 217 214 213 211 211 213 212 210 209 207 207 208 211 212 210 212 214 210 201 192 179
276 285 290 295 295 296 299 301 299 295 292 290 288 285 280 280 281 282 283 283 282 282 283 283 283 284 285 284 282 281 279 278 275 269 261 258 254 249 245 239 229 220 217 215 212 211 213 212 212 212 209 209 211 211 211 209 211 214 212 206 200 189
274 281 290 297 297 300 304 304 303 299 297 296 294 291 286 283 284 284 284 282 281 280 280 281 281 282 283 282 281 279 276 274 273 271 266 261 258 253 250 245 235 225 218 216 215 214 214 214 214 215 213 211 211 211 211 209 210 213 215 213 209 200
270 278 289 298 300 304 305 306 307 305 304 303 300 298 295 293 292 290 288 284 283 283 281 280 279 278 277 277 278 277 275 274 271 269 268 264 260 255 251 248 242 232 222 217 215 215 215 215 215 215 214 212 212 212 211 209 210 213 216 216 212 205